User: anonymous   Login
Location: Unspecified
(0.0000°N, 0.0000°E)
Time: 00:10:51
(UTC+00:00)
Language:

STARLINK-32584 - Orbit

View from above orbital plane
View from above orbital plane
View from above satellite
View from above satellite

Ground track
Ground track

The orbit is defined by the following mean orbital elements,

1 62179U          26145.25083187 +.00000000 +00000-0 +23440-3 0 00006
2 62179  70.0017 331.3328 0002021 272.3192  87.7736 14.98335924    02
Epoch (UTC): 25 May 2026 06:01:11
Eccentricity: 0.0002021
inclination: 70.0017°
perigee height: 571 km
apogee height: 573 km
right ascension of ascending node: 331.3328°
argument of perigee: 272.3192°
revolutions per day: 14.98335924
mean anomaly at epoch: 87.7736°

The dashed part of the orbit path shows where the satellite is in the earth's shadow,  

DLR